Hourly Weather Kunming

Today, 11 August, Tuesday

Time Temperature Precipitation Wind Pressure Humidity
00:00 +18°C° 0 mm 1 mps 588 mmHg 94%
01:00 +18°C° 0 mm 1 mps 588 mmHg 95%
02:00 +18°C° 0 mm 1 mps 588 mmHg 95%
03:00 +18°C° 0 mm 1 mps 588 mmHg 95%
04:00 +18°C° 0 mm 1 mps 588 mmHg 96%
05:00 +18°C° 0 mm 1 mps 588 mmHg 95%
06:00 +18°C° 0 mm 1 mps 588 mmHg 94%
07:00 +18°C° 0 mm 1 mps 588 mmHg 94%
08:00 +19°C° 0 mm 1 mps 589 mmHg 89%
09:00 +20°C° 0 mm 1 mps 589 mmHg 85%
10:00 +21°C° 0 mm 1 mps 590 mmHg 80%
11:00 +23°C° 0.1 mm 2 mps 590 mmHg 74%
12:00 +24°C° 0.1 mm 3 mps 590 mmHg 68%
13:00 +26°C° 0.1 mm 3 mps 590 mmHg 62%
14:00 +25°C° 0.4 mm 3 mps 589 mmHg 65%
15:00 +25°C° 0.4 mm 3 mps 588 mmHg 67%
16:00 +25°C° 0.4 mm 2 mps 588 mmHg 70%
17:00 +23°C° 0.3 mm 2 mps 587 mmHg 76%
18:00 +21°C° 0.3 mm 2 mps 587 mmHg 82%
19:00 +20°C° 0.3 mm 1 mps 587 mmHg 89%
20:00 +20°C° 0 mm 1 mps 587 mmHg 90%
21:00 +19°C° 0 mm 1 mps 588 mmHg 91%
22:00 +19°C° 0 mm 1 mps 588 mmHg 92%
23:00 +19°C° 0 mm 1 mps 588 mmHg 93%

Tomorrow, 12 August, Wednesday

Time Temperature Precipitation Wind Pressure Humidity
00:00 +18°C° 0 mm 1 mps 588 mmHg 94%
01:00 +18°C° 0 mm 1 mps 588 mmHg 94%
02:00 +18°C° 0 mm 1 mps 588 mmHg 95%
03:00 +18°C° 0 mm 1 mps 588 mmHg 95%
04:00 +18°C° 0 mm 1 mps 587 mmHg 96%
05:00 +18°C° 0 mm 1 mps 588 mmHg 95%
06:00 +19°C° 0 mm 1 mps 588 mmHg 94%
07:00 +19°C° 0 mm 1 mps 589 mmHg 93%
08:00 +20°C° 0.1 mm 1 mps 590 mmHg 87%
09:00 +21°C° 0.1 mm 2 mps 590 mmHg 80%
10:00 +23°C° 0.1 mm 2 mps 591 mmHg 74%
11:00 +24°C° 1.3 mm 2 mps 591 mmHg 75%
12:00 +24°C° 1.3 mm 2 mps 590 mmHg 75%
13:00 +25°C° 1.3 mm 2 mps 590 mmHg 76%
14:00 +25°C° 0.8 mm 2 mps 589 mmHg 75%
15:00 +25°C° 0.8 mm 3 mps 589 mmHg 74%
16:00 +25°C° 0.8 mm 3 mps 588 mmHg 73%
17:00 +23°C° 0.6 mm 2 mps 588 mmHg 79%
18:00 +21°C° 0.6 mm 2 mps 588 mmHg 84%
19:00 +21°C° 0.6 mm 1 mps 588 mmHg 90%
20:00 +20°C° 0.4 mm 1 mps 588 mmHg 90%
21:00 +20°C° 0.4 mm 1 mps 589 mmHg 91%
22:00 +19°C° 0.4 mm 1 mps 589 mmHg 92%
23:00 +19°C° 0.4 mm 1 mps 589 mmHg 93%

Day after tomorrow, 13 August, Thursday

Time Temperature Precipitation Wind Pressure Humidity
00:00 +19°C° 0.4 mm 1 mps 589 mmHg 93%
01:00 +18°C° 0.4 mm 1 mps 588 mmHg 94%
02:00 +18°C° 0.6 mm 1 mps 588 mmHg 94%
03:00 +18°C° 0.6 mm 1 mps 588 mmHg 95%
04:00 +18°C° 0.6 mm 1 mps 588 mmHg 95%
05:00 +18°C° 0.6 mm 1 mps 588 mmHg 95%
06:00 +19°C° 0.6 mm 1 mps 589 mmHg 94%
07:00 +19°C° 0.6 mm 1 mps 589 mmHg 94%
08:00 +19°C° 0.8 mm 1 mps 589 mmHg 92%
09:00 +20°C° 0.8 mm 1 mps 590 mmHg 91%
10:00 +20°C° 0.8 mm 2 mps 590 mmHg 89%
11:00 +21°C° 0.7 mm 2 mps 590 mmHg 83%
12:00 +22°C° 0.7 mm 3 mps 590 mmHg 77%
13:00 +24°C° 0.7 mm 3 mps 590 mmHg 71%
14:00 +24°C° 0.4 mm 3 mps 590 mmHg 71%
15:00 +25°C° 0.4 mm 3 mps 589 mmHg 70%
16:00 +25°C° 0.4 mm 3 mps 589 mmHg 70%
17:00 +23°C° 0.4 mm 2 mps 588 mmHg 76%
18:00 +20°C° 0.4 mm 2 mps 588 mmHg 82%
19:00 +19°C° 0.4 mm 2 mps 587 mmHg 88%
20:00 +19°C° 0 mm 1 mps 588 mmHg 89%
21:00 +19°C° 0 mm 1 mps 588 mmHg 91%
22:00 +18°C° 0 mm 1 mps 589 mmHg 92%
23:00 +18°C° 0 mm 1 mps 588 mmHg 92%

14 August, Friday

Time Temperature Precipitation Wind Pressure Humidity
00:00 +18°C° 0 mm 1 mps 588 mmHg 91%
01:00 +16°C° 0 mm 0 mps 588 mmHg 91%
02:00 +18°C° 0 mm 1 mps 588 mmHg 91%
03:00 +18°C° 0 mm 1 mps 588 mmHg 92%
04:00 +18°C° 0 mm 1 mps 588 mmHg 92%
05:00 +18°C° 0 mm 1 mps 588 mmHg 91%
06:00 +16°C° 0 mm 0 mps 588 mmHg 91%
07:00 +16°C° 0 mm 0 mps 589 mmHg 90%
08:00 +20°C° 0 mm 1 mps 589 mmHg 84%
09:00 +21°C° 0 mm 1 mps 590 mmHg 79%
10:00 +23°C° 0 mm 2 mps 591 mmHg 73%
11:00 +23°C° 0.5 mm 2 mps 590 mmHg 71%
12:00 +24°C° 0.5 mm 2 mps 590 mmHg 70%
13:00 +25°C° 0.5 mm 3 mps 589 mmHg 68%
14:00 +25°C° 1.2 mm 3 mps 589 mmHg 71%
15:00 +24°C° 1.2 mm 3 mps 588 mmHg 75%
16:00 +24°C° 1.2 mm 3 mps 587 mmHg 78%
17:00 +23°C° 0.7 mm 2 mps 587 mmHg 82%
18:00 +20°C° 0.7 mm 2 mps 587 mmHg 86%
19:00 +20°C° 0.7 mm 1 mps 587 mmHg 90%
20:00 +19°C° 0.2 mm 1 mps 587 mmHg 91%
21:00 +19°C° 0.2 mm 1 mps 588 mmHg 92%
22:00 +18°C° 0.2 mm 1 mps 588 mmHg 93%
23:00 +18°C° 0 mm 1 mps 588 mmHg 93%

15 August, Saturday

Time Temperature Precipitation Wind Pressure Humidity
00:00 +18°C° 0 mm 1 mps 587 mmHg 94%
01:00 +16°C° 0 mm 1 mps 587 mmHg 94%
02:00 +16°C° 0 mm 1 mps 587 mmHg 94%
03:00 +16°C° 0 mm 1 mps 587 mmHg 95%
04:00 +16°C° 0 mm 1 mps 586 mmHg 95%
05:00 +16°C° 0 mm 1 mps 587 mmHg 95%
06:00 +16°C° 0 mm 1 mps 587 mmHg 95%
07:00 +18°C° 0 mm 1 mps 588 mmHg 94%
08:00 +19°C° 0.1 mm 1 mps 588 mmHg 91%
09:00 +20°C° 0.1 mm 1 mps 589 mmHg 87%
10:00 +21°C° 0.1 mm 1 mps 589 mmHg 83%
11:00 +21°C° 0.7 mm 2 mps 589 mmHg 79%
12:00 +23°C° 0.7 mm 2 mps 589 mmHg 75%
13:00 +24°C° 0.7 mm 2 mps 589 mmHg 72%
14:00 +24°C° 1.3 mm 2 mps 588 mmHg 74%
15:00 +24°C° 1.3 mm 2 mps 588 mmHg 76%
16:00 +24°C° 1.3 mm 2 mps 587 mmHg 77%
17:00 +23°C° 1 mm 2 mps 587 mmHg 82%
18:00 +20°C° 1 mm 2 mps 587 mmHg 86%
19:00 +20°C° 1 mm 1 mps 587 mmHg 90%
20:00 +19°C° 0.4 mm 1 mps 587 mmHg 91%
21:00 +19°C° 0.4 mm 1 mps 588 mmHg 91%
22:00 +18°C° 0.4 mm 1 mps 588 mmHg 92%
23:00 +18°C° 0 mm 1 mps 588 mmHg 93%

16 August, Sunday

Time Temperature Precipitation Wind Pressure Humidity
00:00 +18°C° 0 mm 1 mps 588 mmHg 94%
01:00 +16°C° 0 mm 1 mps 587 mmHg 95%
02:00 +16°C° 0 mm 1 mps 587 mmHg 95%
03:00 +16°C° 0 mm 1 mps 587 mmHg 95%
04:00 +16°C° 0 mm 1 mps 587 mmHg 96%
05:00 +16°C° 0 mm 1 mps 588 mmHg 95%
06:00 +18°C° 0 mm 1 mps 588 mmHg 95%
07:00 +18°C° 0 mm 1 mps 588 mmHg 94%
08:00 +19°C° 0.1 mm 1 mps 589 mmHg 91%
09:00 +20°C° 0.1 mm 1 mps 589 mmHg 87%
10:00 +21°C° 0.1 mm 1 mps 590 mmHg 83%
11:00 +22°C° 1.2 mm 1 mps 590 mmHg 81%
12:00 +23°C° 1.2 mm 2 mps 590 mmHg 79%
13:00 +24°C° 1.2 mm 2 mps 590 mmHg 77%
14:00 +24°C° 1 mm 2 mps 589 mmHg 77%
15:00 +24°C° 1 mm 2 mps 588 mmHg 77%
16:00 +24°C° 1 mm 2 mps 588 mmHg 78%
17:00 +21°C° 1 mm 2 mps 587 mmHg 82%
18:00 +20°C° 1 mm 2 mps 587 mmHg 87%
19:00 +19°C° 1 mm 1 mps 587 mmHg 92%
20:00 +19°C° 1.2 mm 1 mps 587 mmHg 92%
21:00 +18°C° 1.2 mm 1 mps 588 mmHg 92%
22:00 +18°C° 1.2 mm 1 mps 588 mmHg 93%
23:00 +18°C° 0.4 mm 1 mps 588 mmHg 93%
Show more